Location: *
(51.0333°S, 178.4667°E)
Time: 12:17:00
(UTC+00:00)

Cosmos 1975 Rocket - Pass Details

Date: 15 November 2019
Orbit: 603 x 634 km, 82.5° (Epoch: 06 December)

Event Time Altitude Azimuth Distance (km) Brightness Sun altitude
Rises 09:52:03 0° 186° (S) 2,981 7.8 -15.8°
Reaches altitude 10° 09:54:27 10° 178° (S) 2,063 6.7 -16.0°
Maximum altitude 09:58:47 41° 107° (ESE) 936 3.9 -16.3°
Enters shadow 10:00:46 27° 55° (NE) 1,249 4.1 -16.4°
